Location: Budapest
(47.4979°N, 19.0402°E)
Time: 14:02:45
(UTC+02:00)

ISS - Pass Details

Date: 10 October 2017
Orbit: 401 x 408 km, 51.6° (Epoch: 23 October)

Event Time Altitude Azimuth Distance (km) Brightness Sun altitude
Rises 19:30:32 0° 294° (WNW) 2,328 1.5 -15.2°
Reaches altitude 10° 19:32:37 10° 294° (WNW) 1,467 0.2 -15.5°
Maximum altitude 19:35:54 87° 21° (NNE) 412 -3.9 -16.1°
Enters shadow 19:36:53 43° 112° (ESE) 586 -3.5 -16.2°
